Location: Cheyres
(46.8153°N, 6.7877°E)
Time: 15:13:23
(UTC+00:00)

Cosmos 990 Rocket - Pass Details

Date: 29 September 2021
Orbit: 746 x 769 km, 74.0° (Epoch: 18 October)

Event Time Altitude Azimuth Distance (km) Brightness Sun altitude
Rises 19:50:12 0° 218° (SW) 3,187 7.3 -26.4°
Reaches altitude 10° 19:52:38 10° 224° (SW) 2,270 6.6 -26.8°
Maximum altitude 19:57:35 47° 298° (WNW) 998 4.9 -27.5°
Drops below altitude 10° 20:02:37 10° 12° (NNE) 2,300 6.6 -28.3°
Sets 20:05:06 0° 19° (NNE) 3,233 7.4 -28.6°
